Weather History for KRMY - February, 2014

Change the Weather History Date:

Saturday, February 1, 2014

  Actual Average (KBTL) Record (KBTL)
Temperature  
Mean Temperature 25 °F 24 °F  
Max Temperature 28 °F 32 °F 50 °F (2012)
Min Temperature 21 °F 16 °F 0 °F (2004)
Degree Days  
Heating Degree Days 40 41  
Month to date heating degree days 41  
Since 1 July heating degree days 3924  
Cooling Degree Days 0 0  
Month to date cooling degree days 0  
Year to date cooling degree days 0  
Moisture  
Dew Point 24 °F    
Average Humidity 93    
Maximum Humidity 95    
Minimum Humidity 91    
Precipitation  
Precipitation 0.19 in 0.04 in 0.18 in (2015)
Month to date precipitation 0.04  
Year to date precipitation 1.70  
Sea Level Pressure  
Sea Level Pressure 29.93 in    
Wind  
Wind Speed 2 mph (NE)    
Max Wind Speed 6 mph    
Max Gust Speed -    
Visibility 3 miles    
Events Snow    
T = Trace of Precipitation, MM = Missing Value Source: NWS Daily Summary

Daily Weather History Graph

Daily Weather History Graph

Search for Another Location

Airport or City:

Trip Planner

Search our weather history database for the weather conditions in past years. The results will help you decide how hot, cold, wet, or windy it might be!

Date:

Astronomy

Feb. 01, 2014 Rise Set
Actual Time 7:53 AM EST 5:54 PM EST
Civil Twilight 7:23 AM EST 6:23 PM EST
Nautical Twilight 6:49 AM EST 6:57 PM EST
Astronomical Twilight 6:17 AM EST 7:30 PM EST
Moon 8:39 AM EST (2/1) 8:32 PM EST (2/1)
Length of Visible Light 11h 00m
Length of Day
10h 01m
Waxing Crescent, 5% of the Moon is Illuminated
Feb 1
Waxing Crescent
Feb 6
First Quarter
Feb 14
Full
Feb 22
Last Quarter
Mar 1
New

Hourly Weather History & Observations

Time (EST) Temp. Windchill Dew Point Humidity Pressure Visibility Wind Dir Wind Speed Gust Speed Precip Events Conditions
12:13 AM 22.8 °F - 20.8 °F 92% 30.09 in 3.0 mi Calm Calm - N/A Snow Light Snow
12:33 AM 22.6 °F - 20.8 °F 93% 30.09 in 3.0 mi Calm Calm - N/A Snow Light Snow
12:54 AM 22.6 °F - 21.0 °F 93% 30.08 in 3.0 mi Calm Calm - N/A Snow Light Snow
1:13 AM 22.6 °F - 21.0 °F 93% 30.08 in 2.5 mi Calm Calm - N/A Snow Light Snow
1:33 AM 22.6 °F - 21.0 °F 93% 30.08 in 2.5 mi Calm Calm - N/A Snow Light Snow
1:54 AM 22.6 °F - 21.0 °F 93% 30.07 in 2.5 mi Calm Calm - N/A Snow Light Snow
2:13 AM 22.6 °F - 21.0 °F 93% 30.08 in 3.0 mi Calm Calm - N/A Snow Light Snow
2:33 AM 22.5 °F - 21.0 °F 94% 30.07 in 2.5 mi Calm Calm - N/A Snow Light Snow
2:54 AM 22.5 °F - 21.0 °F 94% 30.06 in 3.0 mi Calm Calm - N/A Snow Light Snow
3:13 AM 22.5 °F - 21.0 °F 94% 30.06 in 4.0 mi Calm Calm - N/A Snow Light Snow
3:33 AM 22.8 °F - 21.2 °F 93% 30.06 in 4.0 mi Calm Calm - N/A Snow Light Snow
3:53 AM 23.0 °F 18.4 °F 21.2 °F 93% 30.05 in 3.0 mi East 3.5 mph - N/A Snow Light Snow
4:13 AM 23.0 °F 18.4 °F 21.6 °F 94% 30.03 in 3.0 mi East 3.5 mph - N/A Snow Light Snow
4:34 AM 23.5 °F 19.1 °F 21.7 °F 93% 30.03 in 5.0 mi East 3.5 mph - N/A Snow Light Snow
4:53 AM 23.7 °F 17.8 °F 21.9 °F 93% 30.03 in 5.0 mi East 4.6 mph - N/A Snow Light Snow
5:13 AM 23.9 °F 19.5 °F 21.9 °F 92% 30.03 in 7.0 mi East 3.5 mph - N/A   Overcast
5:34 AM 23.9 °F 18.0 °F 22.1 °F 93% 30.02 in 7.0 mi East 4.6 mph - N/A   Overcast
5:53 AM 24.3 °F 18.4 °F 22.1 °F 91% 30.00 in 7.0 mi East 4.6 mph - N/A   Overcast
6:13 AM 24.3 °F - 22.5 °F 93% 29.99 in 7.0 mi Calm Calm - N/A   Overcast
6:34 AM 24.4 °F 18.6 °F 22.6 °F 93% 29.98 in 5.0 mi East 4.6 mph - N/A   Overcast
6:53 AM 24.6 °F 18.8 °F 23.0 °F 94% 29.97 in 5.0 mi ENE 4.6 mph - N/A   Overcast
7:13 AM 24.8 °F 19.1 °F 23.2 °F 94% 29.97 in 4.0 mi ENE 4.6 mph - N/A   Overcast
7:34 AM 25.2 °F - 23.7 °F 94% 29.97 in 1.8 mi Calm Calm - N/A Snow Light Snow
7:53 AM 25.2 °F 20.9 °F 23.7 °F 94% 29.97 in 1.8 mi East 3.5 mph - N/A Snow Light Snow
8:13 AM 25.3 °F 19.7 °F 23.9 °F 94% 29.97 in 0.5 mi ENE 4.6 mph - N/A Snow Snow
8:34 AM 25.5 °F 21.3 °F 24.3 °F 95% 29.97 in 0.5 mi ENE 3.5 mph - 0.03 in Snow Snow
8:53 AM 25.5 °F 19.9 °F 23.9 °F 94% 29.95 in 0.8 mi ENE 4.6 mph - 0.04 in Snow Light Snow
9:13 AM 25.7 °F 19.0 °F 24.3 °F 94% 29.94 in 0.8 mi ENE 5.8 mph - N/A Snow Light Snow
9:34 AM 25.9 °F 20.3 °F 24.4 °F 94% 29.93 in 1.0 mi NE 4.6 mph - 0.01 in Snow Light Snow
9:53 AM 26.2 °F - 24.6 °F 94% 29.94 in 1.0 mi Calm Calm - 0.02 in Snow Light Snow
10:14 AM 26.2 °F 22.1 °F 24.8 °F 94% 29.94 in 0.8 mi NNE 3.5 mph - 0.02 in Snow Light Snow
10:34 AM 26.4 °F 22.4 °F 24.8 °F 94% 29.93 in 0.8 mi NE 3.5 mph - 0.03 in Snow Light Snow
10:53 AM 26.6 °F 22.6 °F 24.8 °F 93% 29.91 in 1.0 mi ENE 3.5 mph - 0.04 in Snow Light Snow
11:14 AM 27.0 °F 21.6 °F 25.2 °F 93% 29.89 in 1.0 mi ENE 4.6 mph - N/A Snow Light Snow
11:34 AM 27.0 °F 20.5 °F 25.2 °F 93% 29.87 in 1.0 mi East 5.8 mph - 0.01 in Snow Light Snow
11:53 AM 27.1 °F 21.8 °F 25.5 °F 94% 29.84 in 0.8 mi East 4.6 mph - 0.02 in Snow Light Snow
12:14 PM 27.9 °F 24.0 °F 26.1 °F 93% 29.82 in 3.0 mi NE 3.5 mph - N/A Snow Light Snow
12:34 PM 28.2 °F - 26.4 °F 93% 29.84 in 2.5 mi Calm Calm - N/A Snow Light Snow
12:53 PM 28.2 °F - 26.6 °F 94% 29.81 in 1.2 mi Calm Calm - 0.01 in Snow Light Snow
1:14 PM 28.4 °F - 27.0 °F 94% 29.80 in 1.0 mi Calm Calm - N/A Snow Light Snow
1:33 PM 28.4 °F - 27.0 °F 94% 29.80 in 1.8 mi Calm Calm - 0.01 in Snow Light Snow
1:53 PM 28.4 °F - 26.6 °F 93% 29.79 in 2.0 mi Calm Calm - 0.01 in Snow Light Snow
2:14 PM 28.4 °F 24.6 °F 26.4 °F 92% 29.79 in 1.5 mi North 3.5 mph - N/A Snow Light Snow
2:33 PM 28.4 °F - 26.4 °F 92% 29.79 in 3.0 mi Calm Calm - N/A Snow Light Snow
2:53 PM 28.4 °F - 26.6 °F 93% 29.78 in 2.0 mi Calm Calm - N/A Snow Light Snow
3:14 PM 28.9 °F - 27.1 °F 93% 29.79 in 1.2 mi Calm Calm - 0.01 in Snow Light Snow
3:33 PM 28.9 °F - 27.1 °F 93% 29.79 in 2.5 mi Calm Calm - 0.02 in Snow Light Snow
3:53 PM 28.9 °F 25.2 °F 26.8 °F 92% 29.79 in 2.5 mi North 3.5 mph - 0.02 in Snow Light Snow
4:14 PM 28.8 °F - 26.8 °F 92% 29.80 in 1.2 mi Calm Calm - N/A Snow Light Snow
4:33 PM 28.8 °F - 26.6 °F 92% 29.79 in 1.5 mi Calm Calm - 0.01 in Snow Light Snow
4:53 PM 28.8 °F 25.0 °F 26.6 °F 92% 29.80 in 1.8 mi North 3.5 mph - 0.01 in Snow Light Snow
5:14 PM 28.4 °F - 26.8 °F 94% 29.80 in 2.0 mi Calm Calm - N/A Snow Light Snow
5:33 PM 28.4 °F - 26.8 °F 94% 29.81 in 1.2 mi Calm Calm - N/A Snow Light Snow
5:53 PM 27.9 °F 24.0 °F 26.2 °F 94% 29.82 in 1.2 mi NW 3.5 mph - N/A Snow Light Snow
6:14 PM 26.6 °F 22.6 °F 24.8 °F 93% 29.84 in 2.0 mi NW 3.5 mph - 0.01 in Snow Light Snow
6:33 PM 26.6 °F - 25.0 °F 94% 29.84 in 2.0 mi Calm Calm - 0.01 in Snow Light Snow
6:53 PM 25.9 °F 21.7 °F 24.3 °F 94% 29.86 in 1.5 mi NNW 3.5 mph - 0.02 in Snow Light Snow
7:14 PM 25.3 °F 18.5 °F 23.7 °F 94% 29.87 in 1.8 mi NNW 5.8 mph - N/A Snow Light Snow
7:33 PM 24.3 °F 17.3 °F 22.1 °F 91% 29.88 in 2.5 mi NW 5.8 mph - N/A Snow Light Snow
7:53 PM 23.9 °F 18.0 °F 21.7 °F 91% 29.89 in 3.0 mi NNW 4.6 mph - N/A Snow Light Snow
10:42 PM 22.6 °F 18.0 °F 20.3 °F 91% 29.96 in 7.0 mi WNW 3.5 mph - N/A   Clear
10:48 PM 22.6 °F 18.0 °F 20.3 °F 91% 29.96 in 7.0 mi West 3.5 mph - N/A   Scattered Clouds
11:14 PM 22.5 °F 16.3 °F 20.3 °F 91% 29.97 in 7.0 mi WNW 4.6 mph - N/A   Mostly Cloudy
11:33 PM 22.3 °F 17.6 °F 19.9 °F 91% 29.97 in 10.0 mi NW 3.5 mph - N/A   Overcast
11:53 PM 21.7 °F 15.5 °F 19.4 °F 91% 29.97 in 7.0 mi WNW 4.6 mph - N/A   Scattered Clouds